Location: Newark
(46.7636°N, 1.8358°W)
Time: 02:37:13
(UTC+00:00)

Vanguard 1 Rocket - Pass Details

Date: 22 October 2019
Orbit: 651 x 4226 km, 34.3° (Epoch: 22 November)

Event Time Altitude Azimuth Distance (km) Brightness Sun altitude
Rises 10:41:03 0° 237° (WSW) 5,303 11.5 30.1°
Reaches altitude 10° 10:44:00 10° 232° (SW) 4,677 11.3 30.2°
Maximum altitude 10:57:51 52° 161° (SSE) 3,758 12.2 31.0°
Drops below altitude 10° 11:20:50 10° 95° (E) 7,390 12.3 31.8°
Sets 11:27:06 0° 92° (E) 8,472 12.4 31.9°
